sat.trackr.live / text

‹ back to catalog

STARLINK-1230

NORAD 45189 · 2020-012M

PAYLOAD ACTIVE UNKNOWN

§ Identity

Operator
Country
US
Launch date
2020-02-17
Launch site
AFETR
Launch vehicle
Mass (kg)
RCS (m²)

Purposes: comms

External: N2YO · Heavens-Above · Gunter

§ Orbital elements

Epoch: 2026-09-08T09:58:23.395584Z

Period
93.35 min
Inclination
53.1524°
Eccentricity
0.0002497
Mean motion
15.42542702 rev/d
Perigee alt
436.9 km
Apogee alt
440.3 km
Semi-major
6,816.7 km
B*
1.2841e-3
RAAN
264.3058°
Arg perigee
46.6879°
Mean anomaly
313.4335°
Rev number
36,023

§ Raw data

STARLINK-12301 45189U 20012M   26251.41554856  .00056607  00000+0  12841-2 0  99972 45189  53.1524 264.3058 0002497  46.6879 313.4335 15.42542702360237

JSON: /api/v1/satellites/45189 · /tle

For live sub-satellite position, see the globe view (requires WebGL).

§ Visibility from observer

Set your observer location to see the next 7 days of passes ≥ 10°. The values pass through the URL so the page stays shareable.

No JS? Fill the form by hand. The geolocation button needs JavaScript.